N0XUT Weather Reports


Display with metric or nautical units.
time (UTC)temp
F
wind
direction
speed
MPH
gust
MPH
rain 1hr
in
rain 24hr
in
rain mn
in
humidity
%
barometer
mb
20260831233003 89 185 2.0 7.0 0.00 0.00 0.00 71 1009.8
20260831231503 89 232 3.0 9.0 0.00 0.00 0.00 70 1009.8
20260831223003 89 180 3.0 10.0 0.00 0.00 0.00 69 1009.7
20260831221503 90 198 4.0 9.0 0.00 0.00 0.00 67 1009.7
20260831220004 90 195 4.0 8.0 0.00 0.00 0.00 67 1009.7
20260831213003 90 207 5.0 12.0 0.00 0.00 0.00 66 1009.5
20260831211503 89 181 2.0 7.0 0.00 0.00 0.00 70 1009.4
20260831210003 88 159 3.0 12.0 0.00 0.00 0.00 71 1009.4
20260831203003 88 161 4.0 10.0 0.00 0.00 0.00 71 1009.0
20260831201503 88 150 5.0 10.0 0.00 0.00 0.00 69 1009.0
20260831200003 89 154 3.0 7.0 0.00 0.00 0.00 67 1009.3
20260831194503 89 248 2.0 7.0 0.00 0.00 0.00 65 1009.8
20260831193003 89 210 2.0 5.0 0.00 0.02 0.00 65 1009.9
20260831191503 89 220 2.0 5.0 0.00 0.02 0.00 65 1010.0
20260831190004 89 132 3.0 5.0 0.00 0.04 0.00 66 1010.0
20260831184504 88 156 1.0 6.0 0.00 0.07 0.00 69 1010.1
20260831183003 86 226 3.0 6.0 0.00 0.09 0.00 70 1010.1
20260831181503 85 202 3.0 7.0 0.00 0.12 0.00 69 1010.1
20260831180003 85 213 3.0 6.0 0.00 0.13 0.00 70 1010.1
20260831174503 84 234 2.0 10.0 0.00 0.14 0.00 69 1010.2
20260831173003 83 241 3.0 9.0 0.00 0.15 0.00 71 1010.1
20260831171503 82 237 5.0 8.0 0.00 0.15 0.00 72 1010.3
20260831170003 82 239 3.0 8.0 0.00 0.16 0.00 73 1010.6
20260831163003 82 222 6.0 10.0 0.00 0.16 0.00 72 1010.7
20260831161503 82 232 6.0 10.0 0.00 0.17 0.00 70 1010.4
20260831160003 82 247 2.0 10.0 0.00 0.17 0.00 72 1010.1
20260831154504 81 239 4.0 12.0 0.00 0.17 0.00 71 1010.3
20260831153003 80 244 5.0 12.0 0.00 0.17 0.00 71 1010.3
20260831151503 80 238 5.0 12.0 0.00 0.17 0.00 73 1010.1
20260831150003 80 228 9.0 14.0 0.00 0.17 0.00 71 1009.8
20260831143003 79 225 6.0 13.0 0.00 0.17 0.00 73 1009.5
20260831141504 78 209 3.0 12.0 0.00 0.17 0.00 75 1009.5
20260831140004 77 184 3.0 10.0 0.00 0.17 0.00 77 1009.3
20260831133003 76 187 3.0 10.0 0.00 0.17 0.00 78 1009.2
20260831131503 76 190 3.0 12.0 0.00 0.17 0.00 79 1009.2
20260831130004 75 198 5.0 12.0 0.00 0.17 0.00 80 1009.2
20260831121503 74 182 3.0 12.0 0.00 0.17 0.00 83 1008.9
20260831120003 73 188 3.0 12.0 0.00 0.17 0.00 83 1008.8
20260831114504 74 172 4.0 9.0 0.00 0.17 0.00 82 1008.6
20260831113004 74 190 6.0 12.0 0.00 0.17 0.00 82 1008.5
20260831111503 74 184 6.0 12.0 0.00 0.17 0.00 82 1008.4
20260831110004 74 179 5.0 12.0 0.00 0.17 0.00 82 1008.4
20260831104503 75 156 5.0 13.0 0.00 0.17 0.00 81 1008.2
20260831103004 75 195 6.0 13.0 0.00 0.17 0.00 80 1008.1
20260831101504 75 174 6.0 12.0 0.00 0.17 0.00 80 1008.2
20260831100004 75 173 7.0 14.0 0.00 0.17 0.00 80 1008.3
20260831094503 75 182 5.0 10.0 0.00 0.17 0.00 81 1008.3
20260831093004 75 186 6.0 10.0 0.00 0.17 0.00 81 1008.6
20260831091456 75 174 6.0 12.0 0.00 0.17 0.00 81 1008.5
20260831084456 75 176 5.0 12.0 0.00 0.17 0.00 81 1008.6
20260831082956 75 184 5.0 12.0 0.00 0.17 0.00 81 1008.5
20260831081456 76 171 5.0 12.0 0.00 0.17 0.00 81 1008.4
20260831072956 76 173 6.0 12.0 0.00 0.17 0.00 81 1008.5
20260831071456 76 179 6.0 12.0 0.00 0.17 0.00 81 1008.5
20260831064457 77 165 6.0 12.0 0.00 0.17 0.00 81 1008.8
20260831061457 77 178 6.0 12.0 0.00 0.17 0.00 81 1008.9
20260831055956 77 171 5.0 10.0 0.00 0.17 0.00 82 1009.1
20260831054456 77 171 5.0 9.0 0.00 0.17 0.00 82 1009.1
20260831051456 77 158 4.0 9.0 0.00 0.17 0.00 85 1009.2
20260831044456 77 154 5.0 12.0 0.00 0.17 0.17 85 1009.2
20260831042956 77 171 5.0 10.0 0.00 0.17 0.17 86 1009.2
20260831035956 76 141 5.0 9.0 0.00 0.17 0.17 89 1009.4
20260831032956 76 142 4.0 10.0 0.00 0.17 0.17 89 1009.7
20260831031456 76 148 3.0 10.0 0.00 0.17 0.17 89 1009.8
20260831025956 76 138 4.0 9.0 0.00 0.17 0.17 89 1010.0
20260831021456 76 153 0.0 5.0 0.00 0.17 0.17 88 1010.5
20260831014456 75 134 1.0 6.0 0.00 0.17 0.17 87 1009.9
20260831012957 75 153 2.0 5.0 0.00 0.17 0.17 86 1009.6
20260831011456 76 175 2.0 6.0 0.00 0.17 0.17 86 1009.5
20260831004457 76 153 2.0 6.0 0.00 0.21 0.17 84 1009.3
20260830235956 77 151 2.0 7.0 0.00 0.21 0.17 82 1009.5